User: anonymous   Login
Location: Unspecified
(0.0000°N, 0.0000°E)
Time: 23:49:55
(UTC+01:00)
Language:

AO-7 - Orbit

View from above orbital plane
View from above orbital plane
View from above satellite
View from above satellite

Ground track
Ground track

The orbit data is extracted from the following two-line orbital elements,

1 07530U 74089B   14324.16830031 -.00000053  00000-0 -62501-4 0  1225
2 07530 101.4933 300.9733 0011995 352.3595 138.4967 12.53609343831062
Epoch (UTC): 20 November 2014 04:02:21
Eccentricity: 0.0011995
inclination: 101.4933°
perigee height: 1440 km
apogee height: 1459 km
right ascension of ascending node: 300.9733°
argument of perigee: 352.3595°
revolutions per day: 12.53609343
mean anomaly at epoch: 138.4967°
orbit number at epoch: 83106

The dashed part of the orbit path shows where the satellite is in the earth's shadow,  

DLR